Time,TemperatureF,DewpointF,PressureIn,WindDirection,WindDirectionDegrees,WindSpeedMPH,WindSpeedGustMPH,Humidity,HourlyPrecipIn,Conditions,Clouds,dailyrainin,SoftwareType,DateUTC
2013-06-18 00:03:00,84.0,-99.9,30.00,SSW,205,12.0,18.0,-999,-99.99,,,-99.99,,2013-06-18 05:03:00,
2013-06-18 00:12:00,84.0,-99.9,30.00,SSW,204,11.0,17.0,-999,-99.99,,,-99.99,,2013-06-18 05:12:00,
2013-06-18 00:22:00,84.0,-99.9,30.00,SSW,205,11.0,16.0,-999,-99.99,,,-99.99,,2013-06-18 05:22:00,
2013-06-18 00:34:00,84.0,-99.9,30.00,SSW,201,10.0,17.0,-999,-99.99,,,-99.99,,2013-06-18 05:34:00,
2013-06-18 00:43:00,84.0,-99.9,30.00,SSW,209,12.0,19.0,-999,-99.99,,,-99.99,,2013-06-18 05:43:00,
2013-06-18 00:53:00,84.0,-99.9,30.00,SSW,206,10.0,18.0,-999,-99.99,,,-99.99,,2013-06-18 05:53:00,
2013-06-18 01:02:00,84.0,-99.9,29.99,SSW,212,10.0,17.0,-999,-99.99,,,-99.99,,2013-06-18 06:02:00,
2013-06-18 01:12:00,84.0,-99.9,29.99,SSW,207,12.0,15.0,-999,-99.99,,,-99.99,,2013-06-18 06:12:00,
2013-06-18 01:24:00,84.0,-99.9,29.99,SSW,207,12.0,15.0,-999,-99.99,,,-99.99,,2013-06-18 06:24:00,
2013-06-18 01:33:00,84.0,-99.9,29.99,SSW,206,9.0,14.0,-999,-99.99,,,-99.99,,2013-06-18 06:33:00,
2013-06-18 01:43:00,84.0,-99.9,29.98,SSW,206,10.0,17.0,-999,-99.99,,,-99.99,,2013-06-18 06:43:00,
2013-06-18 01:53:00,83.0,-99.9,29.98,SSW,203,9.0,14.0,-999,-99.99,,,-99.99,,2013-06-18 06:53:00,
2013-06-18 02:02:00,83.0,-99.9,29.99,SSW,195,9.0,15.0,-999,-99.99,,,-99.99,,2013-06-18 07:02:00,
2013-06-18 02:12:00,83.0,-99.9,29.99,SSW,211,9.0,15.0,-999,-99.99,,,-99.99,,2013-06-18 07:12:00,
2013-06-18 02:22:00,83.0,-99.9,29.98,SSW,200,9.0,14.0,-999,-99.99,,,-99.99,,2013-06-18 07:22:00,
2013-06-18 02:33:00,82.0,-99.9,29.98,SW,216,15.0,23.0,-999,-99.99,,,-99.99,,2013-06-18 07:33:00,
2013-06-18 02:43:00,80.0,-99.9,29.98,SW,221,15.0,25.0,-999,-99.99,,,-99.99,,2013-06-18 07:43:00,
2013-06-18 02:53:00,80.0,-99.9,29.98,SW,221,15.0,25.0,-999,-99.99,,,-99.99,,2013-06-18 07:53:00,
2013-06-18 03:11:00,82.0,-99.9,29.98,SSW,211,11.0,19.0,-999,-99.99,,,-99.99,,2013-06-18 08:11:00,
2013-06-18 03:23:00,82.0,-99.9,29.98,SSW,205,9.0,14.0,-999,-99.99,,,-99.99,,2013-06-18 08:23:00,
2013-06-18 03:33:00,82.0,-99.9,29.98,West,266,9.0,14.0,-999,-99.99,,,-99.99,,2013-06-18 08:33:00,
2013-06-18 03:43:00,82.0,-99.9,29.98,West,261,10.0,15.0,-999,-99.99,,,-99.99,,2013-06-18 08:43:00,
2013-06-18 03:52:00,82.0,-99.9,29.98,WSW,256,11.0,16.0,-999,-99.99,,,-99.99,,2013-06-18 08:52:00,
2013-06-18 04:02:00,82.0,-99.9,29.98,WSW,252,12.0,17.0,-999,-99.99,,,-99.99,,2013-06-18 09:02:00,
2013-06-18 04:12:00,82.0,-99.9,29.97,WSW,256,12.0,14.0,-999,-99.99,,,-99.99,,2013-06-18 09:12:00,
2013-06-18 04:22:00,82.0,-99.9,29.97,WSW,244,13.0,17.0,-999,-99.99,,,-99.99,,2013-06-18 09:22:00,
2013-06-18 04:34:00,82.0,-99.9,29.98,WSW,253,13.0,18.0,-999,-99.99,,,-99.99,,2013-06-18 09:34:00,
2013-06-18 04:43:00,82.0,-99.9,29.98,WSW,241,11.0,17.0,-999,-99.99,,,-99.99,,2013-06-18 09:43:00,
2013-06-18 04:53:00,82.0,-99.9,29.98,WSW,250,10.0,16.0,-999,-99.99,,,-99.99,,2013-06-18 09:53:00,
2013-06-18 05:02:00,82.0,-99.9,29.98,WSW,244,13.0,22.0,-999,-99.99,,,-99.99,,2013-06-18 10:02:00,
2013-06-18 05:11:00,82.0,-99.9,29.98,WSW,246,14.0,20.0,-999,-99.99,,,-99.99,,2013-06-18 10:11:00,
2013-06-18 05:22:00,82.0,-99.9,29.98,WSW,246,14.0,20.0,-999,-99.99,,,-99.99,,2013-06-18 10:22:00,
2013-06-18 05:33:00,82.0,-99.9,29.98,WSW,247,14.0,23.0,-999,-99.99,,,-99.99,,2013-06-18 10:33:00,
2013-06-18 05:43:00,82.0,-99.9,29.98,WSW,243,13.0,20.0,-999,-99.99,,,-99.99,,2013-06-18 10:43:00,
2013-06-18 05:53:00,82.0,-99.9,29.99,WSW,238,13.0,19.0,-999,-99.99,,,-99.99,,2013-06-18 10:53:00,
2013-06-18 06:02:00,82.0,-99.9,29.99,WSW,246,13.0,21.0,-999,-99.99,,,-99.99,,2013-06-18 11:02:00,
2013-06-18 06:11:00,82.0,-99.9,29.99,WSW,244,15.0,21.0,-999,-99.99,,,-99.99,,2013-06-18 11:11:00,
2013-06-18 06:22:00,82.0,-99.9,29.99,WSW,238,14.0,23.0,-999,-99.99,,,-99.99,,2013-06-18 11:22:00,
2013-06-18 06:32:00,82.0,-99.9,30.00,WSW,246,14.0,19.0,-999,-99.99,,,-99.99,,2013-06-18 11:32:00,
2013-06-18 06:43:00,82.0,-99.9,30.00,WSW,250,13.0,20.0,-999,-99.99,,,-99.99,,2013-06-18 11:43:00,
2013-06-18 06:52:00,82.0,-99.9,30.00,WSW,244,13.0,20.0,-999,-99.99,,,-99.99,,2013-06-18 11:52:00,
2013-06-18 07:02:00,82.0,-99.9,30.00,WSW,241,14.0,19.0,-999,-99.99,,,-99.99,,2013-06-18 12:02:00,
2013-06-18 07:12:00,82.0,-99.9,30.00,WSW,239,13.0,17.0,-999,-99.99,,,-99.99,,2013-06-18 12:12:00,
2013-06-18 07:22:00,83.0,-99.9,30.01,WSW,246,11.0,19.0,-999,-99.99,,,-99.99,,2013-06-18 12:22:00,
2013-06-18 07:33:00,83.0,-99.9,30.01,WSW,246,13.0,16.0,-999,-99.99,,,-99.99,,2013-06-18 12:33:00,
2013-06-18 07:43:00,83.0,-99.9,30.02,WSW,251,12.0,17.0,-999,-99.99,,,-99.99,,2013-06-18 12:43:00,
2013-06-18 07:52:00,83.0,-99.9,30.02,WSW,252,10.0,18.0,-999,-99.99,,,-99.99,,2013-06-18 12:52:00,
2013-06-18 08:02:00,83.0,-99.9,30.02,WSW,246,11.0,16.0,-999,-99.99,,,-99.99,,2013-06-18 13:02:00,
2013-06-18 08:12:00,83.0,-99.9,30.02,WSW,250,11.0,16.0,-999,-99.99,,,-99.99,,2013-06-18 13:12:00,
2013-06-18 08:22:00,83.0,-99.9,30.02,WSW,254,10.0,17.0,-999,-99.99,,,-99.99,,2013-06-18 13:22:00,
2013-06-18 08:34:00,83.0,-99.9,30.03,WSW,250,9.0,19.0,-999,-99.99,,,-99.99,,2013-06-18 13:34:00,
2013-06-18 08:43:00,84.0,-99.9,30.03,WSW,248,9.0,18.0,-999,-99.99,,,-99.99,,2013-06-18 13:43:00,
2013-06-18 08:53:00,84.0,-99.9,30.04,WSW,249,11.0,19.0,-999,-99.99,,,-99.99,,2013-06-18 13:53:00,
2013-06-18 09:02:00,83.0,-99.9,30.04,West,275,12.0,19.0,-999,-99.99,,,-99.99,,2013-06-18 14:02:00,
2013-06-18 09:12:00,83.0,-99.9,30.04,West,264,13.0,18.0,-999,-99.99,,,-99.99,,2013-06-18 14:12:00,
2013-06-18 09:22:00,84.0,-99.9,30.04,West,266,14.0,18.0,-999,-99.99,,,-99.99,,2013-06-18 14:22:00,
2013-06-18 09:33:00,84.0,-99.9,30.04,West,275,12.0,21.0,-999,-99.99,,,-99.99,,2013-06-18 14:33:00,
2013-06-18 09:43:00,82.0,-99.9,30.04,WNW,298,18.0,21.0,-999,-99.99,,,-99.99,,2013-06-18 14:43:00,
2013-06-18 09:53:00,81.0,-99.9,30.04,WNW,302,19.0,22.0,-999,-99.99,,,-99.99,,2013-06-18 14:53:00,
2013-06-18 10:02:00,81.0,-99.9,30.04,NW,304,14.0,19.0,-999,-99.99,,,-99.99,,2013-06-18 15:02:00,
2013-06-18 10:11:00,82.0,-99.9,30.04,West,280,10.0,15.0,-999,-99.99,,,-99.99,,2013-06-18 15:11:00,
2013-06-18 10:22:00,82.0,-99.9,30.04,West,280,10.0,15.0,-999,-99.99,,,-99.99,,2013-06-18 15:22:00,
2013-06-18 10:33:00,82.0,-99.9,30.04,WNW,303,9.0,17.0,-999,-99.99,,,-99.99,,2013-06-18 15:33:00,
2013-06-18 10:43:00,83.0,-99.9,30.04,West,270,12.0,18.0,-999,-99.99,,,-99.99,,2013-06-18 15:43:00,
2013-06-18 10:53:00,84.0,-99.9,30.04,WSW,252,13.0,17.0,-999,-99.99,,,-99.99,,2013-06-18 15:53:00,
2013-06-18 11:02:00,84.0,-99.9,30.04,WSW,252,11.0,18.0,-999,-99.99,,,-99.99,,2013-06-18 16:02:00,
2013-06-18 11:12:00,84.0,-99.9,30.04,WSW,252,9.0,19.0,-999,-99.99,,,-99.99,,2013-06-18 16:12:00,
2013-06-18 11:23:00,84.0,-99.9,30.04,West,262,12.0,20.0,-999,-99.99,,,-99.99,,2013-06-18 16:23:00,
2013-06-18 11:33:00,85.0,-99.9,30.04,WSW,257,12.0,20.0,-999,-99.99,,,-99.99,,2013-06-18 16:33:00,
2013-06-18 11:43:00,85.0,-99.9,30.03,WSW,247,10.0,15.0,-999,-99.99,,,-99.99,,2013-06-18 16:43:00,
2013-06-18 11:53:00,84.0,-99.9,30.03,WSW,238,13.0,20.0,-999,-99.99,,,-99.99,,2013-06-18 16:53:00,
2013-06-18 12:02:00,84.0,-99.9,30.03,WSW,237,13.0,18.0,-999,-99.99,,,-99.99,,2013-06-18 17:02:00,
2013-06-18 12:12:00,85.0,-99.9,30.03,WSW,239,11.0,20.0,-999,-99.99,,,-99.99,,2013-06-18 17:12:00,
2013-06-18 12:23:00,84.0,-99.9,30.03,SW,233,15.0,18.0,-999,-99.99,,,-99.99,,2013-06-18 17:23:00,
2013-06-18 12:34:00,84.0,-99.9,30.02,SW,235,15.0,18.0,-999,-99.99,,,-99.99,,2013-06-18 17:34:00,
2013-06-18 12:43:00,84.0,-99.9,30.02,SW,236,12.0,18.0,-999,-99.99,,,-99.99,,2013-06-18 17:43:00,
2013-06-18 12:53:00,85.0,-99.9,30.02,WSW,237,12.0,18.0,-999,-99.99,,,-99.99,,2013-06-18 17:53:00,
2013-06-18 13:02:00,84.0,-99.9,30.02,WSW,239,14.0,18.0,-999,-99.99,,,-99.99,,2013-06-18 18:02:00,
2013-06-18 13:12:00,85.0,-99.9,30.02,SW,236,13.0,19.0,-999,-99.99,,,-99.99,,2013-06-18 18:12:00,
2013-06-18 13:22:00,84.0,-99.9,30.01,SW,235,12.0,15.0,-999,-99.99,,,-99.99,,2013-06-18 18:22:00,
2013-06-18 13:33:00,84.0,-99.9,30.01,WSW,239,11.0,17.0,-999,-99.99,,,-99.99,,2013-06-18 18:33:00,
2013-06-18 13:43:00,85.0,-99.9,30.01,WSW,241,12.0,16.0,-999,-99.99,,,-99.99,,2013-06-18 18:43:00,
2013-06-18 13:53:00,85.0,-99.9,30.01,WSW,239,12.0,17.0,-999,-99.99,,,-99.99,,2013-06-18 18:53:00,
2013-06-18 14:02:00,85.0,-99.9,30.01,SW,232,10.0,16.0,-999,-99.99,,,-99.99,,2013-06-18 19:02:00,
2013-06-18 14:12:00,85.0,-99.9,30.00,WSW,242,13.0,18.0,-999,-99.99,,,-99.99,,2013-06-18 19:12:00,
2013-06-18 14:22:00,85.0,-99.9,30.00,SW,236,10.0,17.0,-999,-99.99,,,-99.99,,2013-06-18 19:22:00,
2013-06-18 14:34:00,86.0,-99.9,30.00,WSW,238,10.0,19.0,-999,-99.99,,,-99.99,,2013-06-18 19:34:00,
2013-06-18 14:43:00,85.0,-99.9,29.99,WSW,241,12.0,18.0,-999,-99.99,,,-99.99,,2013-06-18 19:43:00,
2013-06-18 14:53:00,85.0,-99.9,29.99,WSW,238,14.0,18.0,-999,-99.99,,,-99.99,,2013-06-18 19:53:00,
2013-06-18 15:02:00,86.0,-99.9,29.99,WSW,242,11.0,19.0,-999,-99.99,,,-99.99,,2013-06-18 20:02:00,
2013-06-18 15:12:00,86.0,-99.9,29.99,WSW,241,11.0,17.0,-999,-99.99,,,-99.99,,2013-06-18 20:12:00,
2013-06-18 15:23:00,85.0,-99.9,29.98,WSW,239,12.0,18.0,-999,-99.99,,,-99.99,,2013-06-18 20:23:00,
2013-06-18 15:33:00,85.0,-99.9,29.98,WSW,237,14.0,19.0,-999,-99.99,,,-99.99,,2013-06-18 20:33:00,
2013-06-18 15:43:00,86.0,-99.9,29.98,WSW,237,11.0,17.0,-999,-99.99,,,-99.99,,2013-06-18 20:43:00,
2013-06-18 15:53:00,86.0,-99.9,29.98,SW,228,11.0,17.0,-999,-99.99,,,-99.99,,2013-06-18 20:53:00,
2013-06-18 16:02:00,85.0,-99.9,29.97,SW,221,12.0,16.0,-999,-99.99,,,-99.99,,2013-06-18 21:02:00,
2013-06-18 16:12:00,85.0,-99.9,29.97,SW,222,14.0,16.0,-999,-99.99,,,-99.99,,2013-06-18 21:12:00,
2013-06-18 16:23:00,85.0,-99.9,29.96,SW,227,13.0,17.0,-999,-99.99,,,-99.99,,2013-06-18 21:23:00,
2013-06-18 16:33:00,85.0,-99.9,29.96,SW,225,13.0,18.0,-999,-99.99,,,-99.99,,2013-06-18 21:33:00,
2013-06-18 16:43:00,85.0,-99.9,29.96,SW,229,13.0,19.0,-999,-99.99,,,-99.99,,2013-06-18 21:43:00,
2013-06-18 16:52:00,85.0,-99.9,29.95,SW,223,14.0,19.0,-999,-99.99,,,-99.99,,2013-06-18 21:52:00,
2013-06-18 17:02:00,85.0,-99.9,29.95,SW,225,16.0,19.0,-999,-99.99,,,-99.99,,2013-06-18 22:02:00,
2013-06-18 17:12:00,85.0,-99.9,29.95,SW,219,12.0,17.0,-999,-99.99,,,-99.99,,2013-06-18 22:12:00,
2013-06-18 17:22:00,85.0,-99.9,29.94,SW,224,15.0,19.0,-999,-99.99,,,-99.99,,2013-06-18 22:22:00,
2013-06-18 17:34:00,85.0,-99.9,29.94,SW,225,14.0,19.0,-999,-99.99,,,-99.99,,2013-06-18 22:34:00,
2013-06-18 17:43:00,85.0,-99.9,29.94,SW,225,11.0,20.0,-999,-99.99,,,-99.99,,2013-06-18 22:43:00,
2013-06-18 17:53:00,85.0,-99.9,29.94,SW,221,11.0,19.0,-999,-99.99,,,-99.99,,2013-06-18 22:53:00,
2013-06-18 18:02:00,85.0,-99.9,29.94,SW,225,14.0,18.0,-999,-99.99,,,-99.99,,2013-06-18 23:02:00,
2013-06-18 18:12:00,85.0,-99.9,29.94,SW,221,14.0,18.0,-999,-99.99,,,-99.99,,2013-06-18 23:12:00,
2013-06-18 18:23:00,85.0,-99.9,29.94,SW,222,14.0,17.0,-999,-99.99,,,-99.99,,2013-06-18 23:23:00,
2013-06-18 18:39:00,85.0,-99.9,29.94,SW,224,15.0,19.0,-999,-99.99,,,-99.99,,2013-06-18 23:39:00,
2013-06-18 18:49:00,85.0,-99.9,29.94,SW,228,15.0,19.0,-999,-99.99,,,-99.99,,2013-06-18 23:49:00,
2013-06-18 19:02:00,85.0,-99.9,29.94,SW,220,13.0,17.0,-999,-99.99,,,-99.99,,2013-06-19 00:02:00,
2013-06-18 19:12:00,85.0,-99.9,29.94,SW,224,14.0,19.0,-999,-99.99,,,-99.99,,2013-06-19 00:12:00,
2013-06-18 19:22:00,85.0,-99.9,29.94,SW,220,11.0,16.0,-999,-99.99,,,-99.99,,2013-06-19 00:22:00,
2013-06-18 19:33:00,85.0,-99.9,29.94,SW,215,10.0,17.0,-999,-99.99,,,-99.99,,2013-06-19 00:33:00,
2013-06-18 19:43:00,85.0,-99.9,29.94,SW,222,13.0,17.0,-999,-99.99,,,-99.99,,2013-06-19 00:43:00,
2013-06-18 19:53:00,85.0,-99.9,29.95,SW,222,14.0,18.0,-999,-99.99,,,-99.99,,2013-06-19 00:53:00,
2013-06-18 20:02:00,84.0,-99.9,29.95,SW,219,10.0,15.0,-999,-99.99,,,-99.99,,2013-06-19 01:02:00,
2013-06-18 20:11:00,84.0,-99.9,29.95,SW,215,11.0,19.0,-999,-99.99,,,-99.99,,2013-06-19 01:11:00,
2013-06-18 20:22:00,84.0,-99.9,29.95,SW,220,11.0,18.0,-999,-99.99,,,-99.99,,2013-06-19 01:22:00,
2013-06-18 20:32:00,84.0,-99.9,29.96,SW,222,13.0,17.0,-999,-99.99,,,-99.99,,2013-06-19 01:32:00,
2013-06-18 20:43:00,84.0,-99.9,29.96,SW,225,13.0,19.0,-999,-99.99,,,-99.99,,2013-06-19 01:43:00,
2013-06-18 20:53:00,84.0,-99.9,29.96,SW,221,11.0,18.0,-999,-99.99,,,-99.99,,2013-06-19 01:53:00,
2013-06-18 21:02:00,84.0,-99.9,29.96,SW,218,11.0,15.0,-999,-99.99,,,-99.99,,2013-06-19 02:02:00,
2013-06-18 21:11:00,84.0,-99.9,29.96,SW,220,9.0,18.0,-999,-99.99,,,-99.99,,2013-06-19 02:11:00,
2013-06-18 21:21:00,84.0,-99.9,29.96,SW,220,9.0,18.0,-999,-99.99,,,-99.99,,2013-06-19 02:21:00,
2013-06-18 21:33:00,84.0,-99.9,29.96,SW,216,10.0,17.0,-999,-99.99,,,-99.99,,2013-06-19 02:33:00,
2013-06-18 21:43:00,84.0,-99.9,29.96,SW,218,12.0,17.0,-999,-99.99,,,-99.99,,2013-06-19 02:43:00,
2013-06-18 21:52:00,84.0,-99.9,29.96,SW,214,10.0,20.0,-999,-99.99,,,-99.99,,2013-06-19 02:52:00,
2013-06-18 22:01:00,84.0,-99.9,29.97,SW,224,16.0,19.0,-999,-99.99,,,-99.99,,2013-06-19 03:01:00,
2013-06-18 22:12:00,84.0,-99.9,29.97,SW,220,15.0,19.0,-999,-99.99,,,-99.99,,2013-06-19 03:12:00,
2013-06-18 22:22:00,84.0,-99.9,29.98,SW,224,17.0,22.0,-999,-99.99,,,-99.99,,2013-06-19 03:22:00,
2013-06-18 22:33:00,84.0,-99.9,29.99,SW,224,18.0,24.0,-999,-99.99,,,-99.99,,2013-06-19 03:33:00,
2013-06-18 22:43:00,84.0,-99.9,29.99,SW,226,16.0,23.0,-999,-99.99,,,-99.99,,2013-06-19 03:43:00,
2013-06-18 22:52:00,84.0,-99.9,29.99,SW,229,14.0,19.0,-999,-99.99,,,-99.99,,2013-06-19 03:52:00,
2013-06-18 23:02:00,84.0,-99.9,29.99,SW,229,14.0,22.0,-999,-99.99,,,-99.99,,2013-06-19 04:02:00,
2013-06-18 23:12:00,84.0,-99.9,29.99,SW,227,16.0,20.0,-999,-99.99,,,-99.99,,2013-06-19 04:12:00,
2013-06-18 23:23:00,84.0,-99.9,29.99,SW,227,16.0,20.0,-999,-99.99,,,-99.99,,2013-06-19 04:23:00,
2013-06-18 23:33:00,83.0,-99.9,29.99,SW,230,15.0,21.0,-999,-99.99,,,-99.99,,2013-06-19 04:33:00,
2013-06-18 23:43:00,83.0,-99.9,29.99,SW,230,13.0,20.0,-999,-99.99,,,-99.99,,2013-06-19 04:43:00,
2013-06-18 23:53:00,83.0,-99.9,29.99,SW,229,16.0,23.0,-999,-99.99,,,-99.99,,2013-06-19 04:53:00,